Regional Weather Roundup
Issued by NWS

Home | Current Version | Previous Version | Text Only | Print | Product List | Glossary On
Versions: 1 2 3 4 5 6 7 8 9 10 11 12 13 14 15 16 17 18 19 20 21 22 23 24 25 26 27
000
ASUS44 KJAN 231510
RWRMS

MISSISSIPPI HOURLY WEATHER ROUNDUP
NATIONAL WEATHER SERVICE JACKSON MS
900 AM CST THU NOV 23 2017

NOTE: "FAIR: INDICATES FEW OR NO CLOUDS BELOW 12,000 FEET WITH NO
SIGNIFICANT WEATHER AND/OR OBSTRUCTIONS TO VISIBILITY.

MSZ001>002-007>008-010>013-018>021-025>028-034>036-231600-
NORTHWEST MISSISSIPPI

CITY           SKY/WX    TMP DP  RH WIND       PRES   REMARKS
BATESVILLE     FAIR      36  29  76 CALM        N/A
CLARKSDALE       N/A     39  32  75 CALM      30.21S
CLEVELAND      FAIR      38  30  71 N3        30.21S
GREENWOOD      SUNNY     37  29  72 NE3       30.20S
GREENVILLE     SUNNY     39  28  64 N7        30.20F WCI  34
OLIVE BRANCH   SUNNY    N/A N/A N/A CALM      30.16R
OXFORD         FAIR      36  27  69 CALM      30.20S
TUNICA           N/A    N/A N/A N/A CALM      30.22S
WINONA         FAIR      37  28  71 NE7       30.18F WCI  31
$$

MSZ003>006-009-014>017-022>024-029>033-037>039-231600-
NORTHEAST MISSISSIPPI

CITY           SKY/WX    TMP DP  RH WIND       PRES   REMARKS
ABERDEEN       FAIR      39  39 100 N7        30.18S WCI  34
COLUMBUS AFB   SUNNY     38  30  73 N7        30.16S WCI  32
CORINTH        FAIR      36  27  69 CALM      30.17F
GOLDN TRIANGLE SUNNY     38  29  70 N5        30.16F WCI  34
STARKVILLE     FAIR      36  30  80 N5        30.18S WCI  32
TUPELO         SUNNY     36  26  67 N6        30.17F WCI  31
$$

MSZ040-058-231600-
CENTRAL MISSISSIPPI

CITY           SKY/WX    TMP DP  RH WIND       PRES   REMARKS
JACKSON INTL   SUNNY     44  32  62 N9        30.17R
JACKSON HAWKNS SUNNY     40  31  70 N5        30.18R
MADISON        FAIR      37  30  75 NW5       30.17S WCI  34
MERIDIAN KEY   SUNNY     42  31  64 N7        30.14S
MERIDIAN NAS   SUNNY     43  29  57 N8        30.14S
RAYMOND        FAIR      37  32  81 N3        30.18S
VICKSBURG VKS  SUNNY     39  32  75 N5        30.21S
$$

MSZ059>079-231600-
SOUTH MISSISSIPPI

CITY           SKY/WX    TMP DP  RH WIND       PRES   REMARKS
COLUMBIA       FAIR      41  32  70 NW6       30.18S
HATTIESBURG    SUNNY     41  32  70 NW9       30.14S
LAUREL         FAIR      39  28  64 N8        30.14S WCI  34
MCCOMB         SUNNY     44  27  51 N9        30.14F
NATCHEZ        SUNNY     39  33  79 N6        30.20S WCI  35
PINE BELT      SUNNY     43  30  60 N9        30.14S
$$

MSZ080>082-231600-
COASTAL MISSISSIPPI

CITY           SKY/WX    TMP DP  RH WIND       PRES   REMARKS
BAY ST LOUIS   SUNNY     45  32  61 N9        30.11R
BILOXI         SUNNY     47  32  56 N10       30.08S
PASCAGOULA     SUNNY     49  32  52 N12       30.08R
GULFPORT       MOSUNNY   47  33  58 N10       30.09R
$$

LAZ007>009-015>016-023>026-231600-
NORTHEAST LOUISIANA

CITY           SKY/WX    TMP DP  RH WIND       PRES   REMARKS
BASTROP        FAIR      41  29  61 NE3       30.22S
TALLULAH/VBURG SUNNY     40  30  67 N8        30.21S WCI  34
VIDALIA          N/A    N/A N/A N/A MISG      30.20S
$$




USA.gov is the U.S. government's official web portal to all federal, state and local government web resources and services.